Location: Azul
(36.7830°S, 59.8500°W)
Time: 01:39:20
(UTC-03:00)

ISS - Pass Details

Date: 21 June 2019
Orbit: 407 x 418 km, 51.6° (Epoch: 27 June)

Event Time Altitude Azimuth Distance (km) Brightness Sun altitude
Rises 18:47:23 0° 346° (NNW) 2,353 0.6 -11.2°
Reaches altitude 10° 18:49:53 10° 5° (N) 1,500 -0.8 -11.6°
Maximum altitude 18:52:18 18° 51° (NE) 1,100 -1.9 -12.1°
Enters shadow 18:53:26 16° 76° (ENE) 1,204 -1.9 -12.3°
